sat.trackr.live / text

‹ back to catalog

KUIPER-00205

NORAD 67774 · 2026-030L

PAYLOAD ACTIVE UNKNOWN

§ Identity

Operator
Country
US
Launch date
2026-02-12
Launch site
FRGUI
Launch vehicle
Mass (kg)
RCS (m²)

External: N2YO · Heavens-Above · Gunter

§ Orbital elements

Epoch: 2026-09-20T16:14:19.829760Z

Period
97.30 min
Inclination
51.9026°
Eccentricity
0.0000496
Mean motion
14.79933994 rev/d
Perigee alt
629.2 km
Apogee alt
629.9 km
Semi-major
7,007.7 km
B*
1.2883e-4
RAAN
40.8685°
Arg perigee
107.9402°
Mean anomaly
252.1614°
Rev number
3,447

§ Raw data

KUIPER-002051 67774U 26030L   26263.67661840  .00000761  00000+0  12883-3 0  99972 67774  51.9026  40.8685 0000496 107.9402 252.1614 14.79933994 34476

JSON: /api/v1/satellites/67774 · /tle

For live sub-satellite position, see the globe view (requires WebGL).

§ Visibility from observer

Set your observer location to see the next 7 days of passes ≥ 10°. The values pass through the URL so the page stays shareable.

No JS? Fill the form by hand. The geolocation button needs JavaScript.